Home > Weather > Magnitogorsk > Past weeks

Flag for Russia Weather for the Past 2 Weeks in Magnitogorsk, Russia

Now
21 °F

Light snow. Overcast.


Feels Like: 21 °F
Forecast: 8 / 24 °F
Wind: 1 mph from South

Location: Ufa

Current Time: Feb 9, 2016 at 5:24:28 AM

Latest Report: Feb 9, 2016 at 4:30 AM


Visibility: N/A

Pressure: 30.24 "Hg

Humidity: 80%

Dew point: 16 °F

Location of MagnitogorskLocation

Historic Weather in Magnitogorsk — Graph

°F

Magnitogorsk Temperature Yesterday

Maximum temperature yesterday: 25 °F (at 1:00 AM)
Minimum temperature yesterday: 12 °F (at 10:30 AM)
Average temperature yesterday: 20 °F

High & Low Weather Summary for the Past Weeks

 TemperatureHumidityPressure
High36 °F (Feb 2, 3:00 PM)100% (Feb 2, 1:30 PM)30.27 "Hg (Feb 2, 1:30 PM)
Low-17 °F (Jan 27, 11:00 PM)59% (Feb 6, 6:00 AM)29.45 "Hg (Feb 4, 7:00 AM)
Average18 °F83%30.00 "Hg
* Reported Jan 25 4:00 AM — Feb 9 4:00 AM, Magnitogorsk, Weather by CustomWeather, © 2016

Note: Actual official high and low records may vary slightly from our data, if they occured in-between our weather recording intervals... More about our weather records

Advertising

Magnitogorsk Weather History for the Previous 24 Hours

 ConditionsComfort  
Time TempWeatherWind HumidityBarometerVisibility
4:00 AM
Tue, Feb 9
21 °FLight snow. Overcast.3 mph80%30.24 "HgN/A
3:30 AM21 °FOvercast.3 mph80%30.24 "HgN/A
3:00 AM21 °FOvercast.3 mph80%30.24 "HgN/A
2:30 AM21 °FOvercast.1 mph80%30.24 "HgN/A
2:00 AM19 °FOvercast.6 mph86%30.24 "HgN/A
1:30 AM19 °FOvercast.6 mph86%30.24 "HgN/A
1:00 AM19 °FOvercast.3 mph86%30.24 "HgN/A
12:30 AM19 °FOvercast.3 mph86%30.24 "HgN/A
12:00 AM19 °FOvercast.6 mph86%30.24 "HgN/A
11:30 PM
Mon, Feb 8
19 °FLight snow. Overcast.10 mph86%30.24 "HgN/A
11:00 PM19 °FLight snow. Overcast.10 mph86%30.24 "HgN/A
10:30 PM19 °FLight snow. Overcast.6 mph86%30.24 "HgN/A
10:00 PM18 °FLight snow. Overcast.8 mph93%30.24 "Hg3 mi
9:30 PM18 °FLight snow. Overcast.8 mph93%30.24 "Hg1 mi
9:00 PM19 °FLight snow. Overcast.10 mph79%30.24 "Hg1 mi
8:30 PM19 °FOvercast.10 mph79%30.24 "HgN/A
8:00 PM19 °FOvercast.10 mph79%30.24 "HgN/A
7:30 PM21 °FOvercast.10 mph80%30.24 "HgN/A
7:00 PM21 °FOvercast.3 mph86%30.24 "HgN/A
6:30 PM21 °FOvercast.3 mph80%30.24 "HgN/A
6:00 PM21 °FOvercast.3 mph80%30.24 "HgN/A
5:30 PM21 °FOvercast.3 mph80%30.24 "HgN/A
5:00 PM19 °FPartly sunny.6 mph79%30.24 "HgN/A
4:30 PM21 °FPartly sunny.8 mph74%30.24 "HgN/A
4:00 PM19 °FPartly sunny.8 mph79%30.24 "HgN/A
3:30 PM19 °FPartly sunny.6 mph79%30.24 "HgN/A
3:00 PM19 °FPartly sunny.6 mph79%30.24 "HgN/A
2:30 PM21 °FPartly sunny.6 mph74%30.24 "HgN/A
2:00 PM21 °FPartly sunny.3 mph74%30.24 "HgN/A
1:30 PM19 °FPartly sunny.3 mph68%30.24 "HgN/A
1:00 PM21 °FPartly sunny.1 mph74%30.24 "HgN/A
12:30 PM21 °FPartly sunny.1 mph74%30.27 "HgN/A
12:00 PM18 °FPartly sunny.3 mph79%30.27 "HgN/A
11:30 AM12 °FScattered clouds.3 mph79%30.24 "HgN/A
11:00 AM12 °FScattered clouds.3 mph79%30.24 "HgN/A
10:30 AM12 °FPassing clouds.1 mph92%30.24 "HgN/A
10:00 AM18 °FLight snow. Passing clouds.3 mph79%30.24 "HgN/A
9:30 AM19 °FLight snow. Overcast.1 mph79%30.24 "HgN/A
9:00 AM19 °FOvercast.1 mph79%30.21 "HgN/A
8:30 AM19 °FOvercast.3 mph79%30.21 "HgN/A
8:00 AM19 °FOvercast.3 mph79%30.21 "HgN/A
7:30 AM21 °FOvercast.6 mph80%30.21 "HgN/A
7:00 AM21 °FOvercast.6 mph80%30.18 "HgN/A
6:30 AM21 °FOvercast.6 mph80%30.18 "HgN/A
6:00 AM23 °FOvercast.8 mph80%30.18 "HgN/A
5:30 AM23 °FOvercast.10 mph80%30.15 "HgN/A
Weather by CustomWeather, © 2016

See weather overviewHow to use our weather pages